Overview Statistics Trail Chart Weather Telemetry Raw packets
 

This is the latest recevied weather packets stored in our database for station/object K2CAT. If no packets are shown the sender has not sent any weather packets the latest 10 day(s).

<< 62 63 64 65 66 67 68 >>
Time Temp. Humidity Pressure Rain* Wind** Luminosity Snow
1777291320 6.67° C 91% 1024.4 hPa 0 mm - 30 W/m² -
1777291016 6.67° C 92% 1024.4 hPa 0 mm - 31 W/m² -
1777290713 6.11° C 92% 1024.5 hPa 0 mm - 30 W/m² -
1777290410 6.11° C 94% 1024.4 hPa 0 mm - 29 W/m² -
1777290104 5.56° C 96% 1024.5 hPa 0 mm - 27 W/m² -
1777289802 5.56° C 97% 1024.2 hPa 0 mm - 27 W/m² -
1777289498 5.56° C 97% 1024.5 hPa 0 mm - 28 W/m² -
1777289194 5.56° C 97% 1024.4 hPa 0 mm - 32 W/m² -
1777288891 5° C 97% 1024.3 hPa 0 mm - 37 W/m² -
1777288587 4.44° C 97% 1024.3 hPa 0 mm - 26 W/m² -
1777288285 4.44° C 97% 1024.3 hPa 0 mm - 23 W/m² -
1777287981 4.44° C 97% 1024.2 hPa 0 mm - 22 W/m² -
1777287678 3.89° C 97% 1024.2 hPa 0 mm - 23 W/m² -
1777287374 3.89° C 97% 1024.1 hPa 0 mm - 22 W/m² -
1777287070 3.89° C 98% 1024 hPa 0 mm - 21 W/m² -
1777286767 3.89° C 98% 1024 hPa 0 mm - 20 W/m² -
1777286465 3.33° C 97% 1024.1 hPa 0 mm - 17 W/m² -
1777286161 3.33° C 97% 1024.1 hPa 0 mm - 15 W/m² -
1777285859 3.33° C 97% 1024 hPa 0 mm - 13 W/m² -
1777285556 3.33° C 97% 1024 hPa 0 mm - 11 W/m² -
1777285254 3.33° C 97% 1024 hPa 0 mm - 9 W/m² -
1777284951 3.33° C 97% 1024.1 hPa 0 mm - 7 W/m² -
1777284647 3.33° C 97% 1023.8 hPa 0 mm - 6 W/m² -
1777284344 3.33° C 97% 1023.8 hPa 0 mm - 4 W/m² -
1777284041 3.33° C 97% 1023.7 hPa 0 mm - 2 W/m² -

* Rain latest hour (hover to see other rain measurements)
** Current wind speed in m/s (hover to see current wind gust speed)